ITASAT

Last updated on Thu Sep 10 2026 00:03:12 GMT+0000 (Coordinated Universal Time)

1 43786U 18099AE 26252.57565936 .00005375 00000+0 25233-3 0 9995 2 43786 97.3954 302.4198 0013665 62.1580 298.1038 15.19968743425721
UTC large
Height (km)
Speed (km/s)
/
Latitude / Longitude
Inclination (degrees)
Orbital Period (minutes)
Azimuth
Elevation
Range (km)
Doppler Factor

Next 0 passes for location: London (51.5072 / 0.1276)

No passes found over London.
ITASAT